DLH8N EDDM-EDDB

Flight info

Callsign DLH8N
Flight time 0h 46m
Altitude 29000
Route AKINI1Q AKINI Y104 MAMOR L132 RUDNO T203 TIVDA DCT ETVIS DCT NAVEK DCT GAVLI/N0458F300 T203 ATGUP ATGUP1R
Aircraft A320/M-SDE3FGHIRWY/LB1

Departure

Time 2026-05-06 11:27
Airport Munich Airport (EDDM)

Arrival

Time 2026-05-06 12:14
Airport Berlin Brandenburg Airport (EDDB)
Time Latitude Longitude Altitude Speed Heading
2026-05-06 11:06 48.35582 11.79714 1471 ft 0 kts 83°
2026-05-06 11:18 48.35581 11.79712 1485 ft 2 kts 83°
2026-05-06 11:18 48.35579 11.79674 1481 ft 4 kts 83°
2026-05-06 11:18 48.35576 11.79637 1477 ft 2 kts 83°
2026-05-06 11:19 48.35572 11.79603 1471 ft 4 kts 66°
2026-05-06 11:19 48.35558 11.79576 1473 ft 4 kts 13°
2026-05-06 11:19 48.35534 11.79576 1480 ft 3 kts 353°
2026-05-06 11:19 48.35530 11.79577 1479 ft 0 kts 353°
2026-05-06 11:22 48.35536 11.79576 1479 ft 4 kts 353°
2026-05-06 11:22 48.35585 11.79561 1475 ft 11 kts 337°
2026-05-06 11:22 48.35675 11.79493 1475 ft 18 kts 333°
2026-05-06 11:22 48.35791 11.79406 1478 ft 19 kts 334°
2026-05-06 11:23 48.35904 11.79370 1481 ft 15 kts 339°
2026-05-06 11:23 48.35995 11.79332 1481 ft 12 kts 354°
2026-05-06 11:23 48.36082 11.79301 1471 ft 13 kts 315°
2026-05-06 11:23 48.36082 11.79174 1483 ft 11 kts 263°
2026-05-06 11:24 48.36070 11.79028 1485 ft 17 kts 263°
2026-05-06 11:24 48.36054 11.78824 1485 ft 22 kts 263°
2026-05-06 11:24 48.36036 11.78564 1485 ft 28 kts 264°
2026-05-06 11:24 48.36012 11.78266 1485 ft 29 kts 263°
2026-05-06 11:25 48.35990 11.77960 1474 ft 29 kts 264°
2026-05-06 11:25 48.35971 11.77733 1485 ft 17 kts 264°
2026-05-06 11:25 48.36044 11.77663 1479 ft 14 kts 356°
2026-05-06 11:25 48.36139 11.77692 1480 ft 15 kts 45°
2026-05-06 11:26 48.36211 11.77832 1479 ft 19 kts 53°
2026-05-06 11:26 48.36307 11.78029 1482 ft 28 kts 54°
2026-05-06 11:26 48.36395 11.78277 1502 ft 28 kts 84°
2026-05-06 11:26 48.36437 11.78824 1485 ft 86 kts 83°
2026-05-06 11:27 48.36528 11.80019 1479 ft 144 kts 83°
2026-05-06 11:27 48.36654 11.81735 1631 ft 179 kts 84°
2026-05-06 11:27 48.36789 11.83653 2226 ft 189 kts 82°
2026-05-06 11:27 48.36993 11.85649 2855 ft 201 kts 73°
2026-05-06 11:28 48.37716 11.87545 3195 ft 220 kts 47°
2026-05-06 11:28 48.38970 11.88894 3811 ft 232 kts 31°
2026-05-06 11:28 48.40475 11.90134 4101 ft 260 kts 31°
2026-05-06 11:28 48.42063 11.91600 4725 ft 271 kts 41°
2026-05-06 11:29 48.43228 11.93820 5559 ft 273 kts 61°
2026-05-06 11:29 48.44239 11.96281 6375 ft 279 kts 60°
2026-05-06 11:29 48.45293 11.98745 7150 ft 285 kts 57°
2026-05-06 11:29 48.46627 12.01030 7923 ft 293 kts 41°
2026-05-06 11:30 48.48352 12.02701 8699 ft 299 kts 24°
2026-05-06 11:30 48.50331 12.03621 9474 ft 303 kts
2026-05-06 11:30 48.52449 12.03789 10209 ft 307 kts 358°
2026-05-06 11:30 48.54602 12.03791 10919 ft 311 kts 357°
2026-05-06 11:31 48.56787 12.03789 11634 ft 317 kts 357°
2026-05-06 11:31 48.59007 12.03787 12338 ft 321 kts 356°
2026-05-06 11:31 48.61267 12.03880 13044 ft 328 kts
2026-05-06 11:31 48.63520 12.04630 13715 ft 337 kts 17°
2026-05-06 11:32 48.65694 12.06044 14343 ft 342 kts 23°
2026-05-06 11:32 48.67872 12.07549 14984 ft 345 kts 23°
2026-05-06 11:32 48.70064 12.09058 15676 ft 347 kts 23°
2026-05-06 11:32 48.72276 12.10576 16300 ft 351 kts 23°
2026-05-06 11:33 48.74514 12.12111 16922 ft 355 kts 23°
2026-05-06 11:33 48.76793 12.13687 17286 ft 369 kts 24°
2026-05-06 11:33 48.79173 12.15375 17425 ft 387 kts 24°
2026-05-06 11:33 48.81661 12.17170 17575 ft 404 kts 25°
2026-05-06 11:34 48.84255 12.19056 17707 ft 421 kts 25°
2026-05-06 11:34 48.86940 12.21014 17900 ft 434 kts 25°
2026-05-06 11:34 48.89675 12.23002 18328 ft 439 kts 25°
2026-05-06 11:34 48.92417 12.24966 18788 ft 442 kts 24°
2026-05-06 11:35 48.95219 12.26945 19231 ft 445 kts 24°
2026-05-06 11:35 48.98042 12.28920 19668 ft 448 kts 24°
2026-05-06 11:35 49.00894 12.30907 20098 ft 452 kts 24°
2026-05-06 11:35 49.03758 12.32909 20524 ft 455 kts 24°
2026-05-06 11:36 49.06646 12.34942 20955 ft 459 kts 24°
2026-05-06 11:36 49.09549 12.36995 21403 ft 461 kts 25°
2026-05-06 11:36 49.12464 12.39064 21865 ft 464 kts 25°
2026-05-06 11:36 49.15411 12.41160 22314 ft 467 kts 25°
2026-05-06 11:37 49.18370 12.43266 22726 ft 471 kts 25°
2026-05-06 11:37 49.21304 12.45355 23114 ft 474 kts 25°
2026-05-06 11:37 49.24288 12.47482 23473 ft 477 kts 25°
2026-05-06 11:37 49.27306 12.49635 23794 ft 480 kts 25°
2026-05-06 11:38 49.30341 12.51807 24131 ft 483 kts 25°
2026-05-06 11:38 49.33346 12.54139 24455 ft 485 kts 31°
2026-05-06 11:38 49.36142 12.57054 24716 ft 488 kts 37°
2026-05-06 11:38 49.38861 12.60191 24993 ft 492 kts 37°
2026-05-06 11:39 49.41610 12.63360 25297 ft 494 kts 37°
2026-05-06 11:39 49.44500 12.66245 25588 ft 497 kts 28°
2026-05-06 11:39 49.47610 12.68593 25881 ft 499 kts 24°
2026-05-06 11:39 49.50748 12.70879 26199 ft 501 kts 24°
2026-05-06 11:40 49.53909 12.73203 26520 ft 503 kts 24°
2026-05-06 11:40 49.57072 12.75547 26820 ft 505 kts 24°
2026-05-06 11:40 49.60244 12.77906 27102 ft 507 kts 24°
2026-05-06 11:40 49.63456 12.80194 27369 ft 508 kts 19°
2026-05-06 11:41 49.66811 12.81888 27626 ft 507 kts 11°
2026-05-06 11:41 49.70278 12.82887 27962 ft 505 kts
2026-05-06 11:41 49.73746 12.83667 28377 ft 504 kts
2026-05-06 11:41 49.77211 12.84456 28725 ft 503 kts
2026-05-06 11:42 49.80675 12.85249 28806 ft 503 kts
2026-05-06 11:42 49.87598 12.86842 28806 ft 502 kts
2026-05-06 11:43 49.94473 12.88435 28829 ft 501 kts
2026-05-06 11:43 50.01358 12.90041 28824 ft 500 kts
2026-05-06 11:44 50.11676 12.92462 28837 ft 500 kts
2026-05-06 11:44 50.18546 12.94068 28849 ft 499 kts
2026-05-06 11:45 50.25409 12.95698 28839 ft 500 kts
2026-05-06 11:45 50.32069 12.99096 28820 ft 507 kts 24°
2026-05-06 11:46 50.38370 13.04086 28785 ft 508 kts 24°
2026-05-06 11:46 50.44676 13.09091 28781 ft 508 kts 24°
2026-05-06 11:47 50.50975 13.14103 28767 ft 508 kts 24°
2026-05-06 11:47 50.57240 13.19107 28765 ft 508 kts 25°
2026-05-06 11:48 50.63531 13.24169 28771 ft 508 kts 25°
2026-05-06 11:48 50.69815 13.29259 28761 ft 507 kts 25°
2026-05-06 11:49 50.76105 13.34355 28757 ft 507 kts 25°
2026-05-06 11:49 50.82385 13.39442 28763 ft 507 kts 25°
2026-05-06 11:50 50.88675 13.44557 28762 ft 507 kts 25°
2026-05-06 11:50 50.95115 13.48775 28762 ft 501 kts 11°
2026-05-06 11:51 51.01922 13.50775 28758 ft 497 kts
2026-05-06 11:51 51.08764 13.52607 28762 ft 498 kts
2026-05-06 11:52 51.15609 13.54470 28765 ft 499 kts
2026-05-06 11:52 51.19020 13.55403 28623 ft 493 kts
2026-05-06 11:52 51.22355 13.56320 28338 ft 479 kts
2026-05-06 11:53 51.25594 13.57208 28058 ft 467 kts
2026-05-06 11:53 51.28758 13.58072 27800 ft 456 kts
2026-05-06 11:53 51.31837 13.58910 27636 ft 442 kts
2026-05-06 11:53 51.34829 13.59723 27457 ft 427 kts
2026-05-06 11:54 51.37719 13.60510 26822 ft 417 kts
2026-05-06 11:54 51.40554 13.61276 26113 ft 409 kts
2026-05-06 11:54 51.43341 13.62034 25400 ft 403 kts
2026-05-06 11:54 51.46057 13.62775 24715 ft 397 kts
2026-05-06 11:55 51.48760 13.63515 24040 ft 391 kts
2026-05-06 11:55 51.51425 13.64249 23370 ft 387 kts
2026-05-06 11:55 51.54062 13.64978 22586 ft 382 kts
2026-05-06 11:55 51.56672 13.65700 21824 ft 378 kts
2026-05-06 11:56 51.59243 13.66499 21088 ft 375 kts
2026-05-06 11:56 51.61778 13.67397 20374 ft 371 kts
2026-05-06 11:56 51.64283 13.68347 19669 ft 368 kts 10°
2026-05-06 11:56 51.66767 13.69307 18992 ft 365 kts 10°
2026-05-06 11:57 51.69226 13.70249 18340 ft 362 kts 10°
2026-05-06 11:57 51.71667 13.71173 17648 ft 359 kts 10°
2026-05-06 11:57 51.74085 13.72078 17013 ft 354 kts
2026-05-06 11:57 51.76466 13.72959 16374 ft 349 kts
2026-05-06 11:58 51.78822 13.73826 15752 ft 345 kts
2026-05-06 11:58 51.81149 13.74677 15143 ft 341 kts
2026-05-06 11:58 51.83453 13.75523 14544 ft 338 kts
2026-05-06 11:58 51.85732 13.76364 13965 ft 334 kts
2026-05-06 11:59 51.87231 13.76917 13585 ft 332 kts
2026-05-06 11:59 51.90203 13.77868 12773 ft 324 kts
2026-05-06 11:59 51.92432 13.77869 12207 ft 316 kts 349°
2026-05-06 11:59 51.93861 13.77494 11810 ft 310 kts 342°
2026-05-06 12:00 51.95896 13.76410 11383 ft 303 kts 332°
2026-05-06 12:00 51.97820 13.75079 11167 ft 300 kts 332°
2026-05-06 12:00 51.99738 13.73777 10930 ft 298 kts 332°
2026-05-06 12:00 52.01646 13.72491 10710 ft 296 kts 332°
2026-05-06 12:01 52.03541 13.71201 10488 ft 294 kts 330°
2026-05-06 12:01 52.05280 13.69539 10260 ft 287 kts 318°
2026-05-06 12:01 52.06788 13.67435 10044 ft 284 kts 313°
2026-05-06 12:01 52.08231 13.65290 9832 ft 281 kts 308°
2026-05-06 12:02 52.09359 13.62756 9620 ft 274 kts 293°
2026-05-06 12:02 52.10026 13.59891 9398 ft 269 kts 279°
2026-05-06 12:02 52.10298 13.56897 9117 ft 266 kts 274°
2026-05-06 12:02 52.10523 13.53907 8982 ft 266 kts 274°
2026-05-06 12:03 52.10749 13.50923 8795 ft 266 kts 274°
2026-05-06 12:03 52.10976 13.47937 8602 ft 265 kts 275°
2026-05-06 12:03 52.11200 13.44966 8397 ft 264 kts 275°
2026-05-06 12:03 52.11423 13.42019 8217 ft 258 kts 275°
2026-05-06 12:04 52.11637 13.39182 8087 ft 248 kts 275°
2026-05-06 12:04 52.11854 13.36459 7935 ft 239 kts 278°
2026-05-06 12:04 52.12402 13.33965 7713 ft 237 kts 296°
2026-05-06 12:04 52.13368 13.31747 7314 ft 242 kts 303°
2026-05-06 12:05 52.14388 13.29555 6914 ft 244 kts 303°
2026-05-06 12:05 52.15415 13.27336 6519 ft 245 kts 303°
2026-05-06 12:05 52.16442 13.25091 6130 ft 255 kts 303°
2026-05-06 12:05 52.17501 13.22730 5716 ft 258 kts 303°
2026-05-06 12:06 52.18542 13.20357 5349 ft 255 kts 303°
2026-05-06 12:06 52.19553 13.18013 5081 ft 250 kts 303°
2026-05-06 12:06 52.20529 13.15713 4858 ft 243 kts 303°
2026-05-06 12:06 52.21467 13.13480 4679 ft 235 kts 303°
2026-05-06 12:07 52.22361 13.11331 4501 ft 228 kts 303°
2026-05-06 12:07 52.23241 13.09212 4315 ft 223 kts 305°
2026-05-06 12:07 52.24402 13.07640 4132 ft 219 kts 339°
2026-05-06 12:07 52.25886 13.07495 4013 ft 214 kts 16°
2026-05-06 12:08 52.27114 13.08791 3988 ft 214 kts 52°
2026-05-06 12:08 52.27782 13.10969 3999 ft 216 kts 68°
2026-05-06 12:08 52.28321 13.13253 4001 ft 214 kts 68°
2026-05-06 12:08 52.28860 13.15509 3999 ft 213 kts 66°
2026-05-06 12:09 52.29403 13.17761 3993 ft 213 kts 66°
2026-05-06 12:09 52.29949 13.20027 3818 ft 213 kts 66°
2026-05-06 12:09 52.30483 13.22244 3571 ft 213 kts 67°
2026-05-06 12:09 52.31019 13.24472 3280 ft 206 kts 66°
2026-05-06 12:10 52.31533 13.26610 3009 ft 197 kts 66°
2026-05-06 12:10 52.32020 13.28638 2783 ft 188 kts 67°
2026-05-06 12:10 52.32491 13.30603 2514 ft 185 kts 66°
2026-05-06 12:10 52.32955 13.32538 2258 ft 177 kts 66°
2026-05-06 12:11 52.33389 13.34350 2027 ft 166 kts 66°
2026-05-06 12:11 52.33804 13.36081 1791 ft 161 kts 66°
2026-05-06 12:11 52.34213 13.37774 1597 ft 160 kts 66°
2026-05-06 12:11 52.34629 13.39436 1398 ft 154 kts 65°
2026-05-06 12:12 52.34999 13.41003 1175 ft 143 kts 69°
2026-05-06 12:12 52.35336 13.42504 997 ft 139 kts 66°
2026-05-06 12:12 52.35685 13.43973 760 ft 138 kts 65°
2026-05-06 12:12 52.36041 13.45443 584 ft 139 kts 67°
2026-05-06 12:13 52.36395 13.46902 422 ft 138 kts 67°
2026-05-06 12:13 52.36733 13.48360 217 ft 136 kts 69°
2026-05-06 12:13 52.37059 13.49716 156 ft 112 kts 68°
2026-05-06 12:13 52.37286 13.50691 155 ft 52 kts 68°
2026-05-06 12:14 52.37301 13.51056 155 ft 24 kts 99°
2026-05-06 12:14 52.37287 13.51193 155 ft 5 kts 99°
2026-05-06 12:14 52.37281 13.51247 155 ft 4 kts 99°
2026-05-06 12:14 52.37277 13.51290 155 ft 5 kts 99°
2026-05-06 12:15 52.37251 13.51372 155 ft 12 kts 154°
2026-05-06 12:15 52.37185 13.51248 155 ft 20 kts 250°
2026-05-06 12:15 52.37128 13.51013 155 ft 24 kts 249°
2026-05-06 12:15 52.37065 13.50748 155 ft 26 kts 249°
2026-05-06 12:16 52.36999 13.50466 155 ft 27 kts 249°
2026-05-06 12:16 52.36940 13.50217 155 ft 19 kts 249°
2026-05-06 12:16 52.36864 13.50135 155 ft 13 kts 165°
2026-05-06 12:16 52.36784 13.50185 155 ft 11 kts 162°
2026-05-06 12:17 52.36711 13.50168 155 ft 10 kts 191°
2026-05-06 12:17 52.36649 13.50188 155 ft 9 kts 157°
2026-05-06 12:17 52.36598 13.50221 155 ft 7 kts 159°
2026-05-06 12:17 52.36578 13.50296 155 ft 11 kts 69°
2026-05-06 12:18 52.36608 13.50421 155 ft 6 kts 69°
2026-05-06 12:18 52.36614 13.50450 155 ft 0 kts 68°